This demonstration page uses our WeatherBlox Daily Observations layout. Learn more.

Hourly Observations for January 3, 2020

Temp ( °F °C ) Dew Point ( °F °C ) Humidity (%) Winds ( mph kmh ) Pressure ( in mb ) Visibility ( mi km ) Precip ( " mm )
12:15 am 00:15 Clear 31 -0.7 30 -1.3 96 96 SW 5 7 29.92 1013 10 16.0934 0 0
12:35 am 00:35 Clear 30 -0.9 29 -1.4 96 96 Calm 29.91 1013 10 16.0934 0 0
12:55 am 00:55 Clear 30 -1 29 -1.5 96 96 SW 5 7 29.91 1013 10 16.0934 0 0
1:15 am 01:15 Clear 30 -1 29 -1.5 96 96 WSW 6 9 29.91 1013 10 16.0934 0 0
1:35 am 01:35 Partly Cloudy 30 -1 29 -1.5 96 96 W 7 11 29.92 1013 10 16.0934 0 0
1:55 am 01:55 Mostly Cloudy 30 -1.1 29 -1.8 95 95 WSW 3 6 29.92 1013 10 16.0934 0 0
2:15 am 02:15 Cloudy 31 -0.7 29 -1.5 94 94 W 8 13 29.93 1014 10 16.0934 0 0
2:35 am 02:35 Mostly Cloudy 30 -1 28 -2 93 93 WNW 8 13 29.94 1014 10 16.0934 0 0
2:55 am 02:55 Clear 32 0 29 -1.7 88 88 WNW 10 17 29.94 1014 10 16.0934 0 0
3:15 am 03:15 Partly Cloudy 32 0 29 -1.5 90 90 NW 10 17 29.95 1014 10 16.0934 0 0
3:35 am 03:35 Mostly Cloudy 33 0.6 31 -0.8 90 90 NW 15 24 29.95 1014 10 16.0934 0 0
3:55 am 03:55 Cloudy 34 0.9 31 -0.4 91 91 NW 14 22 29.96 1014 10 16.0934 0 0
4:15 am 04:15 Cloudy 34 1.3 32 0.1 92 92 NW 13 20 29.96 1015 10 16.0934 0 0
4:35 am 04:35 Mostly Cloudy 35 1.7 32 0.1 89 89 NW 14 22 29.96 1015 10 16.0934 0 0
4:55 am 04:55 Mostly Cloudy 35 1.5 32 0 90 90 NNW 12 19 29.97 1015 10 16.0934 0 0
5:15 am 05:15 Mostly Cloudy 35 1.7 32 0.2 90 90 NNW 9 15 29.97 1015 10 16.0934 0 0
5:35 am 05:35 Partly Cloudy 35 1.4 32 0 91 91 NW 9 15 29.97 1015 10 16.0934 0 0
5:55 am 05:55 Partly Cloudy 33 0.8 32 -0.2 93 93 NW 8 13 29.99 1015 10 16.0934 0 0
6:15 am 06:15 Clear 32 0 31 -0.5 96 96 NW 7 11 30 1016 10 16.0934 0 0
6:35 am 06:35 Clear 33 0.6 32 -0.2 94 94 NW 10 17 30 1016 10 16.0934 0 0
6:55 am 06:55 Clear 33 0.3 31 -0.4 95 95 NW 13 20 30.01 1016 10 16.0934 0 0
7:15 am 07:15 Clear 33 0.3 31 -0.5 94 94 NW 13 20 30.02 1017 10 16.0934 0 0
7:35 am 07:35 Clear 32 0 30 -1 93 93 NW 12 19 30.03 1017 10 16.0934 0 0
7:55 am 07:55 Clear 32 0 30 -1.2 92 92 WNW 12 19 30.04 1017 10 16.0934 0 0
8:15 am 08:15 Sunny 32 0 29 -1.6 89 89 NW 14 22 30.06 1018 10 16.0934 0 0
8:35 am 08:35 Sunny 32 0 29 -1.6 89 89 NW 12 19 30.07 1018 10 16.0934 0 0
8:55 am 08:55 Sunny 32 0 29 -1.6 89 89 NW 8 13 30.08 1019 10 16.0934 0 0
9:15 am 09:15 Sunny 32 0.1 29 -1.5 89 89 NW 10 17 30.09 1019 10 16.0934 0 0
9:35 am 09:35 Sunny 33 0.6 29 -1.4 87 87 NW 12 19 30.1 1019 10 16.0934 0 0
9:55 am 09:55 Partly Cloudy 34 1 30 -1.1 86 86 NW 10 17 30.11 1019 10 16.0934 0 0
10:15 am 10:15 Mostly Cloudy 34 1.3 30 -1.2 84 84 NW 9 15 30.1 1019 10 16.0934 0 0
10:35 am 10:35 Partly Cloudy 35 1.5 30 -0.9 84 84 NW 12 19 30.1 1019 10 16.0934 0 0
10:55 am 10:55 Sunny 36 2 30 -1 81 81 NW 10 17 30.1 1019 10 16.0934 0 0
11:15 am 11:15 Sunny 36 2.1 30 -1.2 79 79 NW 12 19 30.1 1019 10 16.0934 0 0
11:35 am 11:35 Sunny 36 2.2 30 -1.2 78 78 NNW 12 19 30.09 1019 10 16.0934 0 0
11:55 am 11:55 Sunny 36 2.3 30 -1.2 78 78 NNW 13 20 30.08 1019 10 16.0934 0 0
12:15 pm 12:15 Sunny 36 2.4 29 -1.6 75 75 NW 10 17 30.07 1018 10 16.0934 0 0
12:35 pm 12:35 Partly Cloudy 37 2.6 28 -2 72 72 NW 14 22 30.07 1018 10 16.0934 0 0
12:55 pm 12:55 Mostly Cloudy 37 2.6 27 -2.8 68 68 NNW 9 15 30.07 1018 10 16.0934 0 0
1:15 pm 13:15 Cloudy 37 2.8 26 -3.6 63 63 NNW 15 24 30.06 1018 10 16.0934 0 0
1:35 pm 13:35 Cloudy 37 2.9 26 -3.2 65 65 NNW 13 20 30.06 1018 10 16.0934 0 0
1:55 pm 13:55 Cloudy 37 2.5 25 -4 63 63 NW 13 20 30.07 1018 10 16.0934 0 0
2:15 pm 14:15 Mostly Cloudy 38 3.1 25 -3.7 61 61 NW 13 20 30.07 1018 10 16.0934 0 0
2:35 pm 14:35 Cloudy 37 3 26 -3.6 62 62 WNW 15 24 30.07 1018 10 16.0934 0 0
2:55 pm 14:55 Cloudy 37 2.6 24 -4.3 61 61 NW 12 19 30.07 1018 10 16.0934 0 0
3:15 pm 15:15 Cloudy 38 3.3 26 -3.5 61 61 NW 16 26 30.07 1018 10 16.0934 0 0
3:35 pm 15:35 Cloudy 37 3 23 -5 56 56 NW 12 19 30.09 1019 10 16.0934 0 0
3:55 pm 15:55 Mostly Cloudy 36 2 24 -4.7 62 62 NNW 9 15 30.1 1019 10 16.0934 0 0
4:15 pm 16:15 Mostly Cloudy 35 1.6 26 -3.5 69 69 WNW 8 13 30.11 1020 10 16.0934 0 0
4:35 pm 16:35 Cloudy 34 1.3 26 -3.5 71 71 NW 7 11 30.12 1020 10 16.0934 0 0
4:55 pm 16:55 Partly Cloudy 34 1.2 26 -3.6 71 71 NW 7 11 30.13 1020 10 16.0934 0 0
5:15 pm 17:15 Mostly Cloudy 33 0.8 26 -3.1 75 75 NW 6 9 30.14 1021 10 16.0934 0 0
5:35 pm 17:35 Cloudy 33 0.6 27 -2.8 78 78 NW 3 6 30.15 1021 10 16.0934 0 0
5:55 pm 17:55 Cloudy 33 0.4 27 -2.6 81 81 NW 3 6 30.16 1021 10 16.0934 0 0
6:15 pm 18:15 Cloudy 33 0.5 27 -3 78 78 NNW 3 6 30.16 1021 10 16.0934 0 0
6:35 pm 18:35 Cloudy 32 0.2 27 -2.9 80 80 NW 5 7 30.17 1022 10 16.0934 0 0
6:55 pm 18:55 Cloudy 32 0 27 -2.7 82 82 N 6 9 30.19 1022 10 16.0934 0 0
7:15 pm 19:15 Cloudy 30 -1 26 -3.4 84 84 N 5 7 30.2 1023 10 16.0934 0 0
7:35 pm 19:35 Cloudy 31 -0.8 24 -4.5 76 76 N 6 9 30.2 1023 10 16.0934 0 0
7:55 pm 19:55 Cloudy 30 -1.3 23 -4.8 77 77 N 7 11 30.23 1024 10 16.0934 0 0
8:15 pm 20:15 Cloudy 29 -1.6 22 -5.3 76 76 N 5 7 30.23 1024 10 16.0934 0 0
8:35 pm 20:35 Cloudy 29 -1.8 22 -5.6 76 76 NNW 5 7 30.24 1024 10 16.0934 0 0
8:55 pm 20:55 Cloudy 28 -2.1 22 -5.6 77 77 NNW 3 6 30.26 1025 10 16.0934 0 0
9:15 pm 21:15 Partly Cloudy 27 -2.6 22 -5.8 79 79 NNW 5 7 30.26 1025 10 16.0934 0 0
9:35 pm 21:35 Clear 26 -3.2 21 -6.2 80 80 NNW 6 9 30.27 1025 10 16.0934 0 0
9:55 pm 21:55 Clear 26 -3.5 20 -6.7 79 79 N 7 11 30.28 1025 10 16.0934 0 0
10:15 pm 22:15 Clear 25 -4 19 -7 80 80 N 5 7 30.29 1026 10 16.0934 0 0
10:35 pm 22:35 Clear 26 -3.6 19 -7.2 76 76 NNW 5 7 30.29 1026 10 16.0934 0 0
10:55 pm 22:55 Mostly Cloudy 26 -3.4 19 -7.3 75 75 NNW 5 7 30.3 1026 10 16.0934 0 0
11:15 pm 23:15 Cloudy 26 -3.1 19 -7.2 74 74 NNW 3 6 30.3 1026 10 16.0934 0 0
11:35 pm 23:35 Partly Cloudy 26 -3.5 19 -7.5 74 74 NNW 6 9 30.3 1026 10 16.0934 0 0
11:55 pm 23:55 Clear 25 -3.8 19 -7.2 78 78 NW 3 6 30.3 1026 10 16.0934 0 0

Powered by AerisWeather